Flag for U.S.A. Weather past 2 weeks in Racine, Wisconsin, U.S.A.

Now
51 °F

Clear.


Feels Like: 49 °F
Forecast: 45 / 65 °F
Wind: 7 mph from Northwest

Location: Batten International Airport

Current Time: Sep 21, 2014 at 9:40:19 PM

Latest Report: Sep 21, 2014 at 8:53 PM


Visibility: 10 mi

Pressure: 30.14 "Hg

Humidity: 74%

Dew point: 43 °F

Location of RacineLocation

Historic Weather in Racine — Graph

°F

Racine temperature yesterday

Maximum temperature yesterday: 77 °F (at 12:53 PM)
Minimum temperature yesterday: 64 °F (at 12:53 AM)
Average temperature yesterday: 68 °F

Past Weeks' High & Low Weather Summary

 TemperatureHumidityPressure
High79 °F (Sep 10, 1:53 PM)96% (Sep 19, 1:55 AM)30.38 "Hg (Sep 19, 1:55 AM)
Low40 °F (Sep 13, 4:53 AM)43% (Sep 7, 11:53 AM)29.49 "Hg (Sep 10, 12:53 PM)
Average58 °F75%30.09 "Hg
* Reported Sep 6 7:53 PM — Sep 21 7:53 PM, Racine, Weather by CustomWeather, © 2014

Note: Actual official high and low records may vary slightly from our data, if they occured in-between our weather recording intervals... More about our weather records

Advertising

Racine weather history for previous 24 hours

 ConditionsComfort  
Time TempWeatherWind HumidityBarometerVisibility
7:53 PM
Sep 21
52 °FClear.5 mph72%30.11 "Hg10 mi
6:53 PM54 °FSunny.10 mph67%30.09 "Hg10 mi
5:53 PM57 °FPassing clouds.14 mph60%30.06 "Hg10 mi
4:53 PM61 °FPartly sunny.16 mph60%30.01 "Hg10 mi
3:53 PM59 °FPartly sunny.16 mph75%29.99 "Hg10 mi
2:53 PM61 °FPartly sunny.12 mph70%29.97 "Hg10 mi
1:53 PM63 °FMostly cloudy.13 mph65%29.94 "Hg10 mi
12:53 PM62 °FMostly cloudy.18 mph67%29.92 "Hg10 mi
11:53 AM61 °FMostly cloudy.16 mph81%29.90 "Hg10 mi
10:53 AM60 °FMostly cloudy.14 mph75%29.86 "Hg10 mi
9:53 AM59 °FBroken clouds.18 mph78%29.83 "Hg10 mi
8:53 AM58 °FOvercast.12 mph75%29.80 "Hg10 mi
7:53 AM57 °FMore clouds than sun.12 mph81%29.77 "Hg10 mi
6:53 AM56 °FPassing clouds.8 mph81%29.75 "Hg10 mi
5:53 AM56 °FPassing clouds.10 mph84%29.74 "Hg10 mi
4:53 AM57 °FClear.12 mph81%29.73 "Hg10 mi
3:53 AM59 °FClear.13 mph78%29.72 "Hg10 mi
2:53 AM61 °FPassing clouds.15 mph83%29.70 "Hg10 mi
1:53 AM63 °FClear.10 mph87%29.69 "Hg10 mi
12:53 AM63 °FOvercast.8 mph90%29.68 "Hg10 mi
11:58 PM
Sep 20
68 °FThunderstorms. Fog.20 mph87%29.73 "Hg2 mi
10:53 PM67 °FClear.6 mph87%29.71 "Hg10 mi
9:53 PM68 °FPassing clouds.8 mph84%29.73 "Hg10 mi
Weather by CustomWeather, © 2014

See weather overviewHow to use our weather pages